Location: Tel Aviv
(32.0670°N, 34.7670°E)
Time: 19:23:00
(UTC+02:00)

N. Korean satellite - Visible Passes

Search period start: 07 December 2021 00:00
Search period end: 17 December 2021 00:00
Orbit: 446 x 495 km, 97.3° (Epoch: 06 December)

Date Brightness Start Highest point End Pass type
(mag) Time Alt. Az. Time Alt. Az. Time Alt. Az.
07 Dec 9.8 03:56:42 10° ENE 03:58:06 12° E 03:59:29 10° ESE visible
07 Dec 7.5 05:28:30 10° NNW 05:31:15 24° WNW 05:34:00 10° SW visible
08 Dec 6.2 04:59:28 10° N 05:02:49 66° WNW 05:06:11 10° SSW visible
08 Dec 9.6 17:02:42 10° SW 17:05:08 18° W 17:07:34 10° NW visible
09 Dec 7.7 04:31:05 10° NNE 04:34:18 40° E 04:37:30 10° S visible
10 Dec 9.5 04:03:33 10° ENE 04:05:39 16° E 04:07:46 10° SE visible
10 Dec 7.8 05:36:17 10° NNW 05:38:43 19° WNW 05:41:10 10° WSW visible
11 Dec 6.5 05:07:30 13° N 05:10:18 49° WNW 05:13:36 10° SSW visible
11 Dec 9.8 17:10:48 10° SW 17:12:40 14° W 17:14:31 10° WNW visible
12 Dec 7.1 04:39:12 16° NNE 04:41:47 54° E 04:45:07 10° S visible
13 Dec 9.1 04:10:45 11° NE 04:13:09 20° E 04:15:43 10° SE visible
13 Dec 8.1 05:44:51 13° NW 05:46:07 15° WNW 05:48:08 10° WSW visible
14 Dec 6.9 05:16:19 25° NNW 05:17:42 37° WNW 05:20:53 10° SW visible
14 Dec 10.2 17:19:22 10° WSW 17:20:08 11° W 17:20:53 10° W visible
15 Dec 6.5 04:47:44 32° NNE 04:49:11 73° ESE 04:52:36 10° S visible
16 Dec 8.7 04:19:08 19° ENE 04:20:33 25° E 04:23:27 10° SSE visible
16 Dec 8.3 05:53:12 12° WNW 05:53:27 12° WNW 05:54:49 10° W visible
